User: anonymous   Login
Location: Caltech
(34.1382°N, 118.1253°W)
Time: 04:07:33
(UTC-07:00)
Language:

Cosmos 1833 Rocket - Orbit

View from above orbital plane
View from above orbital plane
View from above satellite
View from above satellite

Ground track
Ground track

The orbit data is extracted from the following two-line orbital elements,

1 17590U 87027B   16204.18983671  .00000036  00000-0  41855-4 0  9998
2 17590  71.0035 124.8572 0002884  84.3273 275.8179 14.16726225517387
Epoch (UTC): 22 July 2016 04:33:21
Eccentricity: 0.0002884
inclination: 71.0035°
perigee height: 834 km
apogee height: 838 km
right ascension of ascending node: 124.8572°
argument of perigee: 84.3273°
revolutions per day: 14.16726225
mean anomaly at epoch: 275.8179°
orbit number at epoch: 51738

The dashed part of the orbit path shows where the satellite is in the earth's shadow,  

DLR